Weather History for Louisa, VA

Change the Weather History Date:

Friday, June 28, 2013

  Actual Average (KCHO) Record (KCHO)
Temperature  
Mean Temperature 82 °F 75 °F  
Max Temperature 91 °F 86 °F 99 °F (1952)
Min Temperature 73 °F 64 °F 53 °F (1985)
Degree Days  
Heating Degree Days 0 0  
Month to date heating degree days 8  
Since 1 June heating degree days 8  
Since 1 July heating degree days 4441  
Cooling Degree Days 17 10  
Month to date cooling degree days 199  
Year to date cooling degree days 285  
Since 1 June cooling degree days 199  
Growing Degree Days 32 (Base 50)    
Moisture  
Dew Point 71 °F    
Average Humidity 72    
Maximum Humidity 94    
Minimum Humidity 43    
Precipitation  
Precipitation 0.00 in 0.11 in 1.13 in (2007)
Month to date precipitation 3.50  
Year to date precipitation 19.97  
Sea Level Pressure  
Sea Level Pressure 29.59 in    
Wind  
Wind Speed 3 mph (SW)    
Max Wind Speed 12 mph    
Max Gust Speed 18 mph    
Visibility 10 miles    
Events      
T = Trace of Precipitation, MM = Missing Value Source: NWS Daily Summary

Daily Weather History Graph

Daily Weather History Graph

Search for Another Location

Airport:

Trip Planner

Search our weather history database for the weather conditions in past years. The results will help you decide how hot, cold, wet, or windy it might be!

Date:

Astronomy

Jun. 28, 2013 Rise Set
Actual Time 5:51 AM EDT 8:38 PM EDT
Civil Twilight 5:20 AM EDT 9:09 PM EDT
Nautical Twilight 4:40 AM EDT 9:49 PM EDT
Astronomical Twilight 3:56 AM EDT 10:33 PM EDT
Moon No Moon Rise 11:51 AM EDT (6/28)
Length of Visible Light 15h 49m
Length of Day
14h 46m
Waning Gibbous, 66% of the Moon is Illuminated
Jun 28
Waning Gibbous
Jun 30
Last Quarter
Jul 8
New
Jul 15
First Quarter
Jul 22
Full

Hourly Weather History & Observations

Time (EDT) Temp. Heat Index Dew Point Humidity Pressure Visibility Wind Dir Wind Speed Gust Speed Precip Events Conditions
12:15 AM 75.2 °F - 71.6 °F 89% 29.68 in 10.0 mi Calm Calm - N/A   Scattered Clouds
12:35 AM 75.2 °F - 71.6 °F 89% 29.67 in 10.0 mi Calm Calm - N/A   Scattered Clouds
12:55 AM 75.2 °F - 71.6 °F 89% 29.67 in 10.0 mi Calm Calm - N/A   Clear
1:15 AM 75.2 °F - 71.6 °F 89% 29.66 in 10.0 mi SW 3.5 mph - N/A   Clear
1:35 AM 73.4 °F - 71.6 °F 94% 29.66 in 10.0 mi SW 3.5 mph - N/A   Clear
1:55 AM 73.4 °F - 71.6 °F 94% 29.66 in 10.0 mi SW 3.5 mph - N/A   Clear
2:15 AM 73.4 °F - 69.8 °F 88% 29.64 in 10.0 mi Calm Calm - N/A   Clear
2:35 AM 73.4 °F - 69.8 °F 88% 29.63 in 10.0 mi Calm Calm - N/A   Clear
2:55 AM 73.4 °F - 69.8 °F 88% 29.63 in 10.0 mi Calm Calm - N/A   Clear
3:15 AM 73.4 °F - 69.8 °F 88% 29.62 in 10.0 mi SW 3.5 mph - N/A   Clear
3:35 AM 73.4 °F - 69.8 °F 88% 29.63 in 10.0 mi WSW 5.8 mph - N/A   Clear
3:55 AM 73.4 °F - 68.0 °F 83% 29.62 in 10.0 mi WSW 3.5 mph - N/A   Clear
4:15 AM 73.4 °F - 68.0 °F 83% 29.62 in 10.0 mi WSW 3.5 mph - N/A   Clear
4:35 AM 73.4 °F - 68.0 °F 83% 29.62 in 10.0 mi Calm Calm - N/A   Clear
4:55 AM 73.4 °F - 68.0 °F 83% 29.62 in 10.0 mi SW 3.5 mph - N/A   Clear
5:15 AM 73.4 °F - 68.0 °F 83% 29.62 in 10.0 mi WSW 4.6 mph - N/A   Clear
5:35 AM 73.4 °F - 68.0 °F 83% 29.62 in 10.0 mi SW 4.6 mph - N/A   Clear
5:55 AM 73.4 °F - 68.0 °F 83% 29.63 in 10.0 mi WSW 3.5 mph - N/A   Clear
6:15 AM 73.4 °F - 68.0 °F 83% 29.63 in 10.0 mi WSW 3.5 mph - N/A   Scattered Clouds
6:35 AM 73.4 °F - 68.0 °F 83% 29.63 in 10.0 mi WSW 3.5 mph - N/A   Scattered Clouds
6:55 AM 73.4 °F - 69.8 °F 88% 29.63 in 10.0 mi Calm Calm - N/A   Clear
7:15 AM 75.2 °F - 69.8 °F 83% 29.63 in 10.0 mi Calm Calm - N/A   Clear
7:35 AM 75.2 °F - 69.8 °F 83% 29.63 in 10.0 mi SW 3.5 mph - N/A   Clear
7:55 AM 75.2 °F - 69.8 °F 83% 29.63 in 10.0 mi SSW 4.6 mph - N/A   Clear
8:55 AM 80.6 °F 84.6 °F 71.6 °F 74% 29.61 in 10.0 mi Calm Calm - N/A   Clear
9:15 AM 80.6 °F 84.6 °F 71.6 °F 74% 29.62 in 10.0 mi SW 4.6 mph - N/A   Clear
9:35 AM 80.6 °F 84.6 °F 71.6 °F 74% 29.61 in 10.0 mi SW 4.6 mph - N/A   Clear
9:55 AM 84.2 °F 89.6 °F 71.6 °F 66% 29.61 in 10.0 mi SW 3.5 mph - N/A   Clear
10:15 AM 84.2 °F 89.6 °F 71.6 °F 66% 29.62 in 10.0 mi SW 5.8 mph - N/A   Clear
10:35 AM 84.2 °F 89.6 °F 71.6 °F 66% 29.61 in 10.0 mi SSW 5.8 mph - N/A   Clear
10:55 AM 86.0 °F 91.8 °F 71.6 °F 62% 29.61 in 10.0 mi SSW 5.8 mph - N/A   Clear
11:15 AM 84.2 °F 89.6 °F 71.6 °F 66% 29.62 in 10.0 mi SSW 5.8 mph - N/A   Clear
11:35 AM 87.8 °F 93.8 °F 71.6 °F 58% 29.62 in 10.0 mi SW 6.9 mph - N/A   Clear
11:55 AM 87.8 °F 93.8 °F 71.6 °F 58% 29.62 in 10.0 mi SW 5.8 mph - N/A   Scattered Clouds
12:15 PM 89.6 °F 96.2 °F 71.6 °F 55% 29.61 in 10.0 mi WSW 6.9 mph - N/A   Scattered Clouds
12:35 PM 87.8 °F 92.6 °F 69.8 °F 55% 29.60 in 10.0 mi SSW 5.8 mph - N/A   Clear
12:55 PM 89.6 °F 94.7 °F 69.8 °F 52% 29.60 in 10.0 mi SW 8.1 mph - N/A   Clear
1:15 PM 89.6 °F 94.7 °F 69.8 °F 52% 29.58 in 10.0 mi SW 8.1 mph - N/A   Clear
1:35 PM 89.6 °F 96.2 °F 71.6 °F 55% 29.58 in 10.0 mi SW 8.1 mph 16.1 mph N/A   Clear
1:55 PM 89.6 °F 96.2 °F 71.6 °F 55% 29.57 in 10.0 mi SSW 6.9 mph - N/A   Scattered Clouds
2:15 PM 89.6 °F 96.2 °F 71.6 °F 55% 29.56 in 10.0 mi South 6.9 mph 16.1 mph N/A   Clear
2:35 PM 91.4 °F 98.4 °F 71.6 °F 52% 29.55 in 10.0 mi SSW 8.1 mph 16.1 mph N/A   Clear
2:55 PM 91.4 °F 98.4 °F 71.6 °F 52% 29.54 in 10.0 mi SSW 8.1 mph 18.4 mph N/A   Clear
3:15 PM 91.4 °F 98.4 °F 71.6 °F 52% 29.53 in 10.0 mi South 9.2 mph 16.1 mph N/A   Scattered Clouds
3:35 PM 89.6 °F 96.2 °F 71.6 °F 55% 29.52 in 10.0 mi SSW 9.2 mph - N/A   Scattered Clouds
3:55 PM 91.4 °F 96.8 °F 69.8 °F 49% 29.51 in 10.0 mi SW 11.5 mph 17.3 mph N/A   Scattered Clouds
4:15 PM 91.4 °F 96.8 °F 69.8 °F 49% 29.51 in 10.0 mi SW 11.5 mph 18.4 mph N/A   Scattered Clouds
4:35 PM 91.4 °F 96.8 °F 69.8 °F 49% 29.50 in 10.0 mi WSW 9.2 mph - N/A   Scattered Clouds
4:55 PM 91.4 °F 95.4 °F 68.0 °F 46% 29.50 in 10.0 mi SW 6.9 mph - N/A   Clear
5:15 PM 91.4 °F 96.8 °F 69.8 °F 49% 29.50 in 10.0 mi SSW 6.9 mph - N/A   Scattered Clouds
5:35 PM 91.4 °F 94.0 °F 66.2 °F 43% 29.51 in 10.0 mi SW 5.8 mph - N/A   Clear
5:55 PM 89.6 °F 98.2 °F 73.4 °F 59% 29.50 in 10.0 mi South 6.9 mph 17.3 mph N/A   Scattered Clouds
6:15 PM 87.8 °F 95.6 °F 73.4 °F 62% 29.50 in 10.0 mi SSW 4.6 mph - N/A   Scattered Clouds
6:35 PM 87.8 °F 95.6 °F 73.4 °F 62% 29.51 in 10.0 mi SSW 6.9 mph - N/A   Clear
6:55 PM 86.0 °F 93.4 °F 73.4 °F 66% 29.52 in 10.0 mi South 6.9 mph - N/A   Clear
7:15 PM 86.0 °F 93.4 °F 73.4 °F 66% 29.53 in 10.0 mi SSW 5.8 mph - N/A   Clear
7:35 PM 84.2 °F 89.6 °F 71.6 °F 66% 29.53 in 10.0 mi South 4.6 mph - N/A   Clear
7:55 PM 82.4 °F 87.2 °F 71.6 °F 70% 29.53 in 10.0 mi SSW 5.8 mph - N/A   Clear
8:15 PM 80.6 °F 84.6 °F 71.6 °F 74% 29.53 in 10.0 mi South 5.8 mph - N/A   Clear
8:35 PM 80.6 °F 84.6 °F 71.6 °F 74% 29.53 in 10.0 mi South 4.6 mph - N/A   Clear
8:55 PM 78.8 °F - 71.6 °F 78% 29.54 in 10.0 mi South 4.6 mph - N/A   Clear
9:15 PM 78.8 °F - 71.6 °F 78% 29.55 in 10.0 mi North 4.6 mph - N/A   Clear
9:35 PM 75.2 °F - 69.8 °F 83% 29.56 in 10.0 mi NNE 4.6 mph - N/A   Clear
9:55 PM 77.0 °F - 71.6 °F 83% 29.58 in 10.0 mi Calm Calm - N/A   Mostly Cloudy
10:15 PM 77.0 °F - 71.6 °F 83% 29.58 in 10.0 mi Calm Calm - N/A   Mostly Cloudy
10:35 PM 77.0 °F - 71.6 °F 83% 29.59 in 10.0 mi ENE 3.5 mph - N/A   Overcast
10:55 PM 78.8 °F - 69.8 °F 74% 29.59 in 10.0 mi NE 5.8 mph - N/A   Overcast
11:15 PM 77.0 °F - 68.0 °F 74% 29.59 in 10.0 mi ENE 4.6 mph - N/A   Mostly Cloudy
11:35 PM 75.2 °F - 68.0 °F 78% 29.59 in 10.0 mi Calm Calm - N/A   Scattered Clouds
11:55 PM 73.4 °F - 69.8 °F 88% 29.59 in 10.0 mi Calm Calm - N/A   Clear